Tracking 29511 objects as of 15-Sep-2024
HD Live streaming from Space Station
objects crossing your sky now

SL-12 R/B(2)

Track SL-12 R/B(2) now!


NORAD ID: 14115
Int'l Code: 1982-093F
Perigee: 35,492.3 km
Apogee: 35,550.3 km
Inclination: 7.9 °
Period: 1,422.2 minutes
Semi major axis: 41892 km
RCS: 2.5512 m2 (large)
Launch date: September 16, 1982
Source: Commonwealth of Independent States (former USSR) (CIS)
Launch site: TYURATAM MISSILE AND SPACE COMPLEX (TTMTR)

Note: This is a ROCKET BODY
Your satellite tracking list
Your tracking list is empty




NASA's NSSDC Master Catalog

Two Line Element Set (TLE):
1 14115U 82093F   24258.43681722 -.00000116  00000-0  00000-0 0  9997
2 14115   7.9090 302.0052 0006922 279.3449 253.0702  1.01251573117360
Source of the keplerian elements: AFSPC